This is the latest recevied weather packets stored in our database for station/object OK1TBF-15. If no packets are shown the sender has not sent any weather packets the latest 10 day(s).
| Time | Temp. | Humidity | Pressure | Rain* | Wind** | Luminosity | Snow |
|---|---|---|---|---|---|---|---|
| 1787483471 | 17.78° C | 63% | 1024.7 hPa | - | - | - | - |
| 1787482871 | 17.78° C | 62% | 1024.6 hPa | - | - | - | - |
| 1787482271 | 17.22° C | 63% | 1024.8 hPa | - | - | - | - |
| 1787481682 | 16.67° C | 64% | 1024.8 hPa | - | - | - | - |
| 1787481070 | 16.67° C | 64% | 1024.8 hPa | - | - | - | - |
| 1787480470 | 16.67° C | 67% | 1024.8 hPa | - | - | - | - |
| 1787479870 | 16.67° C | 66% | 1024.8 hPa | - | - | - | - |
| 1787479270 | 17.22° C | 68% | 1024.9 hPa | - | - | - | - |
| 1787478670 | 17.22° C | 64% | 1024.9 hPa | - | - | - | - |
| 1787478070 | 17.22° C | 67% | 1024.8 hPa | - | - | - | - |
| 1787477470 | 16.67° C | 70% | 1024.8 hPa | - | - | - | - |
| 1787476870 | 16.67° C | 68% | 1024.9 hPa | - | - | - | - |
| 1787476270 | 16.67° C | 69% | 1024.8 hPa | - | - | - | - |
| 1787475670 | 16.11° C | 71% | 1024.9 hPa | - | - | - | - |
| 1787475070 | 16.11° C | 73% | 1024.9 hPa | - | - | - | - |
| 1787474469 | 15.56° C | 73% | 1024.9 hPa | - | - | - | - |
| 1787473869 | 15.56° C | 73% | 1024.9 hPa | - | - | - | - |
| 1787473269 | 15.56° C | 76% | 1024.8 hPa | - | - | - | - |
| 1787472670 | 15.56° C | 75% | 1024.8 hPa | - | - | - | - |
| 1787472070 | 15° C | 76% | 1024.8 hPa | - | - | - | - |
| 1787471470 | 15° C | 76% | 1024.7 hPa | - | - | - | - |
| 1787470870 | 14.44° C | 79% | 1024.6 hPa | - | - | - | - |
| 1787470270 | 13.89° C | 80% | 1024.5 hPa | - | - | - | - |
| 1787469670 | 13.89° C | 79% | 1024.5 hPa | - | - | - | - |
| 1787469070 | 13.33° C | 79% | 1024.5 hPa | - | - | - | - |
* Rain since midnight (hover to see other rain measurements)
** Current wind speed in m/s (hover to see current wind gust speed)